Saga Sapphire — 9HOF8 — position and weather

sailwx.info

Track history (hours):
 
Tides and Currents Weather Stations Pressure Air Temp Water Temp Dewpoint Dewpoint Depression Visibility Wind Speed Wind Dir Waves Ship Positions

Saga Sapphire

Last reported at 2015-Jul-06 10:33 UTC. Time now 2015-Jul-06 11:18 UTC.
Position N 36°50' W 001°22'.

Length 200 m; draft 8.5 m.

Type: Passenger vessel. MMSI: 256208000.

Date/timePositionNaut miles runAvg speedWind from/ knotsBaromVisibWave heightAir tempDewpointWater temp
2015-Jul-06 10:33N 36°50' W 001°22'1413.7
2015-Jul-06 09:33N 36°42' W 001°36'1413.9
2015-Jul-06 08:33N 36°34' W 001°50'1413.8
2015-Jul-06 07:33N 36°26' W 002°04'1313.2
2015-Jul-06 06:33N 36°22' W 002°19'1413.8
2015-Jul-06 05:33N 36°21' W 002°36'2814.2
2015-Jul-06 03:33N 36°16' W 003°11'9414.9
2015-Jul-05 21:13N 36°06' W 005°07'913.4
2015-Jul-05 20:33N 36°05' W 005°18'5 0.9
2015-Jul-05 15:11N 36°09' W 005°22'0 0.0
2015-Jul-05 14:29N 36°09' W 005°22'0 0.0
2015-Jul-05 13:29N 36°09' W 005°22'0 0.0
2015-Jul-05 12:29N 36°09' W 005°22'0 0.0
2015-Jul-05 08:26N 36°09' W 005°22'0 0.0
2015-Jul-05 07:33N 36°09' W 005°22'5 5.3
2015-Jul-05 06:33N 36°04' W 005°22'8413.7
2015-Jul-05 00:26N 36°05' W 007°05'1315.2
2015-Jul-04 23:33N 36°08' W 007°21'1514.7
2015-Jul-04 22:33N 36°12' W 007°39'1514.8
2015-Jul-04 21:33N 36°16' W 007°57'1515.5
2015-Jul-04 20:33N 36°20' W 008°15'1615.6
2015-Jul-04 19:33N 36°24' W 008°34'1615.5
2015-Jul-04 18:33N 36°28' W 008°53'1615.7
2015-Jul-04 17:31N 36°33' W 009°12'1515.3
2015-Jul-04 16:32N 36°42' W 009°27'1515.5
2015-Jul-04 15:33N 36°56' W 009°35'2016.0
2015-Jul-04 14:20N 37°15' W 009°41'1316.1
2015-Jul-04 13:33N 37°27' W 009°44'4815.9
2015-Jul-04 10:33N 38°13' W 009°59'1615.7
2015-Jul-04 09:33N 38°29' W 010°02'1615.6
2015-Jul-04 08:33N 38°44' W 010°06'1615.7
2015-Jul-04 07:33N 38°60' W 010°06'1716.1
2015-Jul-04 06:28N 39°17' W 010°06'11515.4
2015-Jul-03 23:00N 41°12' W 010°06'34914.5 200 / 181021.1 5.4 1.519.418.8
2015-Jul-02 23:00N 46°42' W 007°30'25514.6 130 / 161022.610.8 1.018.215.0
2015-Jul-02 05:33N 49°52' W 003°14'3014.8
2015-Jul-02 03:31N 50°03' W 002°31'1717.2
2015-Jul-02 02:32N 50°08' W 002°06'2218.3
2015-Jul-02 01:21N 50°13' W 001°33'2217.8
2015-Jul-02 00:05N 50°19' W 000°59'1415.8
2015-Jul-01 23:11N 50°23' W 000°38'914.8
2015-Jul-01 22:33N 50°26' W 000°24'1613.6
2015-Jul-01 21:23N 50°30' E 000°00'1012.6
2015-Jul-01 20:33N 50°34' E 000°16'1312.9
2015-Jul-01 19:33N 50°38' E 000°35'1514.7
2015-Jul-01 18:33N 50°46' E 000°55'1716.5
2015-Jul-01 17:33N 50°58' E 001°13'10 9.7
2015-Jul-01 16:31N 51°07' E 001°19'0 0.0
2015-Jul-01 07:28N 51°07' E 001°19'0 0.0
2015-Jul-01 06:25N 51°07' E 001°19'5 6.4
2015-Jul-01 05:33N 51°08' E 001°28'1414.5
2015-Jul-01 04:33N 51°19' E 001°42'1514.9
2015-Jul-01 03:33N 51°32' E 001°52'1414.3
2015-Jul-01 02:33N 51°45' E 002°04'1312.6
2015-Jul-01 01:33N 51°56' E 002°15'1212.1
2015-Jul-01 00:34N 52°07' E 002°20'1312.8
2015-Jun-30 23:33N 52°20' E 002°25'1413.7
2015-Jun-30 22:33N 52°33' E 002°30'1414.2
2015-Jun-30 21:33N 52°47' E 002°36'1414.2
2015-Jun-30 20:33N 53°01' E 002°38'1414.1
2015-Jun-30 19:33N 53°14' E 002°44'1514.7
2015-Jun-30 18:33N 53°28' E 002°52'1414.2
2015-Jun-30 17:33N 53°42' E 003°00'1614.6
2015-Jun-30 16:27N 53°55' E 003°15'1314.8
2015-Jun-30 15:33N 54°07' E 003°25'25515.8
2015-Jun-29 23:27N 58°14' E 005°22'3015.7
2015-Jun-29 21:33N 58°43' E 005°12'1616.1
2015-Jun-29 20:33N 58°59' E 005°12'1111.2
2015-Jun-29 19:34N 59°10' E 005°08'1615.2
2015-Jun-29 18:32N 59°26' E 005°10'  
Track history (hours):
 
Tides and Currents Weather Stations Pressure Air Temp Water Temp Dewpoint Dewpoint Depression Visibility Wind Speed Wind Dir Waves Ship Positions

Saga Sapphire

Last reported at 2015-Jul-06 10:33 UTC. Time now 2015-Jul-06 11:18 UTC.
Position N 36°50' W 001°22'.

Length 200 m; draft 8.5 m.

Type: Passenger vessel. MMSI: 256208000.

Date/timePositionNaut miles runAvg speedWind from/ knotsBaromVisibWave heightAir tempDewpointWater temp
2015-Jul-06 10:33N 36°50' W 001°22'1413.7
2015-Jul-06 09:33N 36°42' W 001°36'1413.9
2015-Jul-06 08:33N 36°34' W 001°50'1413.8
2015-Jul-06 07:33N 36°26' W 002°04'1313.2
2015-Jul-06 06:33N 36°22' W 002°19'1413.8
2015-Jul-06 05:33N 36°21' W 002°36'2814.2
2015-Jul-06 03:33N 36°16' W 003°11'9414.9
2015-Jul-05 21:13N 36°06' W 005°07'913.4
2015-Jul-05 20:33N 36°05' W 005°18'5 0.9
2015-Jul-05 15:11N 36°09' W 005°22'0 0.0
2015-Jul-05 14:29N 36°09' W 005°22'0 0.0
2015-Jul-05 13:29N 36°09' W 005°22'0 0.0
2015-Jul-05 12:29N 36°09' W 005°22'0 0.0
2015-Jul-05 08:26N 36°09' W 005°22'0 0.0
2015-Jul-05 07:33N 36°09' W 005°22'5 5.3
2015-Jul-05 06:33N 36°04' W 005°22'8413.7
2015-Jul-05 00:26N 36°05' W 007°05'1315.2
2015-Jul-04 23:33N 36°08' W 007°21'1514.7
2015-Jul-04 22:33N 36°12' W 007°39'1514.8
2015-Jul-04 21:33N 36°16' W 007°57'1515.5
2015-Jul-04 20:33N 36°20' W 008°15'1615.6
2015-Jul-04 19:33N 36°24' W 008°34'1615.5
2015-Jul-04 18:33N 36°28' W 008°53'1615.7
2015-Jul-04 17:31N 36°33' W 009°12'1515.3
2015-Jul-04 16:32N 36°42' W 009°27'1515.5
2015-Jul-04 15:33N 36°56' W 009°35'2016.0
2015-Jul-04 14:20N 37°15' W 009°41'1316.1
2015-Jul-04 13:33N 37°27' W 009°44'4815.9
2015-Jul-04 10:33N 38°13' W 009°59'1615.7
2015-Jul-04 09:33N 38°29' W 010°02'1615.6
2015-Jul-04 08:33N 38°44' W 010°06'1615.7
2015-Jul-04 07:33N 38°60' W 010°06'1716.1
2015-Jul-04 06:28N 39°17' W 010°06'11515.4
2015-Jul-03 23:00N 41°12' W 010°06'34914.5 200 / 181021.1 5.4 1.519.418.8
2015-Jul-02 23:00N 46°42' W 007°30'25514.6 130 / 161022.610.8 1.018.215.0
2015-Jul-02 05:33N 49°52' W 003°14'3014.8
2015-Jul-02 03:31N 50°03' W 002°31'1717.2
2015-Jul-02 02:32N 50°08' W 002°06'2218.3
2015-Jul-02 01:21N 50°13' W 001°33'2217.8
2015-Jul-02 00:05N 50°19' W 000°59'1415.8
2015-Jul-01 23:11N 50°23' W 000°38'914.8
2015-Jul-01 22:33N 50°26' W 000°24'1613.6
2015-Jul-01 21:23N 50°30' E 000°00'1012.6
2015-Jul-01 20:33N 50°34' E 000°16'1312.9
2015-Jul-01 19:33N 50°38' E 000°35'1514.7
2015-Jul-01 18:33N 50°46' E 000°55'1716.5
2015-Jul-01 17:33N 50°58' E 001°13'10 9.7
2015-Jul-01 16:31N 51°07' E 001°19'0 0.0
2015-Jul-01 07:28N 51°07' E 001°19'0 0.0
2015-Jul-01 06:25N 51°07' E 001°19'5 6.4
2015-Jul-01 05:33N 51°08' E 001°28'1414.5
2015-Jul-01 04:33N 51°19' E 001°42'1514.9
2015-Jul-01 03:33N 51°32' E 001°52'1414.3
2015-Jul-01 02:33N 51°45' E 002°04'1312.6
2015-Jul-01 01:33N 51°56' E 002°15'1212.1
2015-Jul-01 00:34N 52°07' E 002°20'1312.8
2015-Jun-30 23:33N 52°20' E 002°25'1413.7
2015-Jun-30 22:33N 52°33' E 002°30'1414.2
2015-Jun-30 21:33N 52°47' E 002°36'1414.2
2015-Jun-30 20:33N 53°01' E 002°38'1414.1
2015-Jun-30 19:33N 53°14' E 002°44'1514.7
2015-Jun-30 18:33N 53°28' E 002°52'1414.2
2015-Jun-30 17:33N 53°42' E 003°00'1614.6
2015-Jun-30 16:27N 53°55' E 003°15'1314.8
2015-Jun-30 15:33N 54°07' E 003°25'25515.8
2015-Jun-29 23:27N 58°14' E 005°22'3015.7
2015-Jun-29 21:33N 58°43' E 005°12'1616.1
2015-Jun-29 20:33N 58°59' E 005°12'1111.2
2015-Jun-29 19:34N 59°10' E 005°08'1615.2
2015-Jun-29 18:32N 59°26' E 005°10'  

Dump ship's entire track history